SHIJIAN-20 (SJ-20)

Last updated on Thu Aug 20 2026 00:02:59 GMT+0000 (Coordinated Universal Time)

1 44910U 19097A 26230.96840029 .00000142 00000+0 00000+0 0 9990 2 44910 5.0762 74.2671 0001783 187.1202 94.7876 1.00268867 24327
UTC large
Height (km)
Speed (km/s)
/
Latitude / Longitude
Inclination (degrees)
Orbital Period (minutes)
Azimuth
Elevation
Range (km)
Doppler Factor

Next 0 passes for location: London (51.5072 / 0.1276)

No passes found over London.
SHIJIAN-20 (SJ-20)